Terminal Aerodrome Forecast
Issued by NWS

Home | Current Version | Previous Version | Text Only | Print | Product List | Glossary On
Versions: 1 2 3 4 5 6 7 8 9 10 11 12
478
FTUS43 KFGF 301540 AAA
TAFTVF
TAF AMD
KTVF 301540Z 3016/0112 05015G24KT P6SM FEW250
     FM010100 04009KT P6SM SKC
     FM010800 04005KT P6SM SKC
      AMD LTD TO CLD VIS AND WIND=

USA.gov is the U.S. government's official web portal to all federal, state and local government web resources and services.